Powrót do katalogu

STARLINK-37451

AktywnyŁącznośćVLEO
NORAD 69471·PAYLOAD·🇺🇸 United States

Wystrzelony Jun 8, 2026 z Cape Canaveral Space Force Station

Loading…

Następne Przeloty (najbliższe 24 godziny)

TLE

ŚwieżeSource: CelesTrak SupGP

Epoka: Sep 14, 2026, 21:09 UTC

1 69471C 26127AE  26257.88173611  .00011506  00000+0  33975-3 0  2571
2 69471  53.1585 191.6263 0001382  95.0920 278.1117 15.34401612    18

Śledź STARLINK-37451 w czasie rzeczywistym z AllMySat

Download on the App Store